Weather History for Hurghada, Egypt

Change the Weather History Date:

Sunday, March 17, 2013

  Actual Average Record
Temperature  
Mean Temperature 69 °F -  
Max Temperature 78 °F 78 °F 84 °F (2014)
Min Temperature 60 °F 61 °F 51 °F (2004)
Cooling Degree Days 4    
Growing Degree Days 19 (Base 50)    
Moisture  
Dew Point 42 °F    
Average Humidity 38    
Maximum Humidity 64    
Minimum Humidity 19    
Precipitation  
Precipitation 0.00 in - - ()
Sea Level Pressure  
Sea Level Pressure 29.96 in    
Wind  
Wind Speed 17 mph ()    
Max Wind Speed 32 mph    
Max Gust Speed -    
Visibility 4.0 miles    
Events      
Averages and records for this station are not official NWS values.
T = Trace of Precipitation, MM = Missing Value Source: Averaged Metar Reports

Daily Weather History Graph

Daily Weather History Graph

Search for Another Location

Airport:

Trip Planner

Search our weather history database for the weather conditions in past years. The results will help you decide how hot, cold, wet, or windy it might be!

Date:

Astronomy

Mar. 17, 2013 Rise Set
Actual Time 5:52 AM EET 5:54 PM EET
Civil Twilight 5:28 AM EET 6:17 PM EET
Nautical Twilight 5:01 AM EET 6:44 PM EET
Astronomical Twilight 4:34 AM EET 7:11 PM EET
Moon 9:18 AM EET (3/17) 11:07 PM EET (3/17)
Length of Visible Light 12h 48m
Length of Day
12h 02m
Waxing Crescent, 29% of the Moon is Illuminated
Mar 17
Waxing Crescent
Mar 19
First Quarter
Mar 27
Full
Apr 3
Last Quarter
Apr 10
New

Hourly Weather History & Observations

Time (EET) Temp. Dew Point Humidity Pressure Visibility Wind Dir Wind Speed Gust Speed Precip Events Conditions
12:00 AM 69.8 °F 41.0 °F 35% 29.92 in - NNW 18.4 mph - N/A   Clear
1:00 AM 66.2 °F 41.0 °F 40% 29.92 in - NNW 13.8 mph - N/A   Clear
2:00 AM 66 °F 41 °F 29% 29.92 in 6 mi NNW 11.5 mph - -  
2:00 AM 66.2 °F 41.0 °F 40% 29.92 in - NNW 11.5 mph - N/A   Clear
3:00 AM 66.2 °F 46.4 °F 49% 29.92 in - NNW 17.3 mph - N/A   Clear
4:00 AM 64.4 °F 51.8 °F 64% 29.92 in - NNW 23.0 mph - N/A   Clear
5:00 AM 62.6 °F 50.0 °F 63% 29.95 in - NNW 18.4 mph - N/A   Clear
6:00 AM 60.8 °F 48.2 °F 63% 29.98 in - NW 17.3 mph - N/A   Clear
7:00 AM 60.8 °F 44.6 °F 55% 29.98 in - NNW 17.3 mph - N/A   Clear
8:00 AM 64 °F 41 °F 32% 30.01 in 6 mi NNW 20.7 mph - -  
8:00 AM 64.4 °F 41.0 °F 42% 30.01 in - NNW 20.7 mph - N/A   Clear
9:00 AM 66.2 °F 41.0 °F 40% 30.01 in - NNW 23.0 mph - N/A   Clear
10:00 AM 69.8 °F 39.2 °F 33% 30.01 in - NNW 19.6 mph - N/A   Clear
11:00 AM 73.4 °F 41.0 °F 31% 30.01 in 3.7 mi NNW 23.0 mph - N/A   Unknown
12:00 PM 75.2 °F 42.8 °F 31% 29.98 in 2.5 mi North 32.2 mph - N/A   Sand
1:00 PM 77.0 °F 42.8 °F 29% 29.95 in 2.5 mi North 27.6 mph - N/A   Sand
2:00 PM 77 °F 42 °F 19% 29.95 in 2 mi North 32.2 mph - -   Blowing Sand
2:00 PM 77.0 °F 42.8 °F 29% 29.95 in 2.5 mi North 32.2 mph - N/A   Sand
3:00 PM 78.8 °F 41.0 °F 26% 29.92 in 3.7 mi North 25.3 mph - N/A   Unknown
4:00 PM 77.0 °F 42.8 °F 29% 29.92 in 3.7 mi North 27.6 mph - N/A   Unknown
5:00 PM 73.4 °F 41.0 °F 31% 29.92 in 5.0 mi North 27.6 mph - N/A   Unknown
6:00 PM 69.8 °F 41.0 °F 35% 29.95 in - NNW 20.7 mph - N/A   Clear
7:00 PM 68.0 °F 39.2 °F 35% 29.95 in - North 13.8 mph - N/A   Clear
8:00 PM 67 °F 39 °F 24% 29.99 in 6 mi NW 13.8 mph - -  
8:00 PM 66.2 °F 39.2 °F 37% 29.98 in - NW 13.8 mph - N/A   Clear
9:00 PM 66.2 °F 39.2 °F 37% 29.98 in - NW 18.4 mph - N/A   Clear
10:00 PM 64.4 °F 41.0 °F 42% 29.98 in - WNW 20.7 mph - N/A   Clear
11:00 PM 64.4 °F 41.0 °F 42% 29.98 in - WNW 23.0 mph - N/A   Clear